Weather History for Minneapolis, MN

Change the Weather History Date:

Thursday, January 24, 2013

  Actual Average Record
Temperature  
Mean Temperature 4 °F 16 °F  
Max Temperature 13 °F 24 °F 57 °F (1981)
Min Temperature -6 °F 7 °F -33 °F (1904)
Degree Days  
Heating Degree Days 61 49  
Month to date heating degree days 1156 1192  
Since 1 July heating degree days 3928 4215  
Cooling Degree Days 0 0  
Month to date cooling degree days 0 0  
Year to date cooling degree days 0 0  
Moisture  
Dew Point -9 °F    
Average Humidity 62    
Maximum Humidity 69    
Minimum Humidity 55    
Precipitation  
Precipitation T in 0.03 in 1.21 in (1967)
Month to date precipitation 0.34 0.72  
Year to date precipitation 0.34 0.72  
Snow  
Snow T in 0.40 in 6.00 in (1972)
Month to date snowfall 1.6 9.6  
Since 1 July snowfall 17.4 31.4  
Snow Depth T in    
Sea Level Pressure  
Sea Level Pressure 30.54 in    
Wind  
Wind Speed 9 mph (ESE)    
Max Wind Speed 17 mph    
Max Gust Speed 22 mph    
Visibility 10 miles    
Events Snow    
T = Trace of Precipitation, MM = Missing Value Source: NWS Daily Summary

Daily Weather History Graph

Daily Weather History Graph

Search for Another Location

Airport:

Trip Planner

Search our weather history database for the weather conditions in past years. The results will help you decide how hot, cold, wet, or windy it might be!

Date:

Astronomy

Jan. 24, 2013 Rise Set
Actual Time 7:40 AM CST 5:10 PM CST
Civil Twilight 7:08 AM CST 5:42 PM CST
Nautical Twilight 6:32 AM CST 6:17 PM CST
Astronomical Twilight 5:58 AM CST 6:52 PM CST
Moon 3:11 PM CST (1/24) 5:40 AM CST (1/24)
Length of Visible Light 10h 33m
Length of Day
9h 29m
Waxing Gibbous, 94% of the Moon is Illuminated
Jan 24
Waxing Gibbous
Jan 26
Full
Feb 3
Last Quarter
Feb 10
New
Feb 17
First Quarter

Hourly Weather History & Observations

Time (CST) Temp. Windchill Dew Point Humidity Pressure Visibility Wind Dir Wind Speed Gust Speed Precip Events Conditions
12:53 AM -6.0 °F -23.6 °F -17.0 °F 59% 30.69 in 10.0 mi North 10.4 mph - N/A   Partly Cloudy
1:53 AM -6.0 °F -21.5 °F -17.0 °F 59% 30.69 in 10.0 mi NNE 8.1 mph - N/A   Overcast
2:53 AM -6.0 °F -21.5 °F -17.0 °F 59% 30.72 in 10.0 mi North 8.1 mph - N/A   Overcast
3:53 AM -6.0 °F -16.9 °F -17.0 °F 59% 30.74 in 10.0 mi NNE 4.6 mph - N/A   Overcast
4:53 AM -6.0 °F -18.6 °F -16.1 °F 62% 30.71 in 10.0 mi NE 5.8 mph - N/A   Overcast
5:53 AM -6.0 °F -18.6 °F -16.1 °F 62% 30.71 in 10.0 mi ENE 5.8 mph - N/A   Overcast
6:41 AM -5.8 °F - -14.8 °F 65% 30.67 in 10.0 mi Calm Calm - N/A   Overcast
6:53 AM -5.1 °F - -15.0 °F 62% 30.76 in 10.0 mi Calm Calm - N/A   Overcast
7:53 AM -4.0 °F - -15.0 °F 59% 30.74 in 10.0 mi Calm Calm - N/A   Overcast
8:53 AM -4.0 °F -19.0 °F -13.0 °F 65% 30.71 in 10.0 mi ESE 8.1 mph - N/A   Overcast
9:53 AM -2.9 °F -15.0 °F -11.9 °F 65% 30.70 in 10.0 mi ESE 5.8 mph - N/A   Overcast
10:53 AM -0.9 °F -12.7 °F -11.0 °F 62% 30.70 in 10.0 mi SE 5.8 mph - N/A   Overcast
11:53 AM 1.0 °F -12.9 °F -9.9 °F 60% 30.66 in 10.0 mi ESE 8.1 mph - N/A   Overcast
12:53 PM 3.0 °F -13.3 °F -8.0 °F 60% 30.61 in 10.0 mi ESE 11.5 mph - N/A   Overcast
1:53 PM 5.0 °F -6.9 °F -7.1 °F 58% 30.58 in 10.0 mi Variable 6.9 mph - N/A   Overcast
2:45 PM 6.8 °F -7.8 °F -5.8 °F 56% 30.45 in 10.0 mi SE 10.4 mph - N/A   Overcast
2:53 PM 7.0 °F -8.3 °F -7.1 °F 53% 30.52 in 10.0 mi SE 11.5 mph - N/A   Overcast
3:53 PM 8.1 °F -7.7 °F -6.0 °F 53% 30.48 in 10.0 mi SE 12.7 mph - N/A   Overcast
4:53 PM 9.0 °F -5.9 °F -5.1 °F 53% 30.45 in 10.0 mi ESE 11.5 mph - N/A   Overcast
5:53 PM 9.0 °F -8.5 °F -2.9 °F 59% 30.42 in 10.0 mi ESE 16.1 mph - N/A   Overcast
6:53 PM 8.1 °F -6.2 °F -2.9 °F 61% 30.39 in 10.0 mi SE 10.4 mph - N/A   Overcast
7:22 PM 8.6 °F -8.9 °F -2.2 °F 62% 30.28 in 10.0 mi SE 16.1 mph 20.7 mph N/A   Overcast
7:53 PM 9.0 °F -5.9 °F -2.0 °F 61% 30.33 in 10.0 mi SE 11.5 mph 19.6 mph N/A   Overcast
8:53 PM 9.0 °F -5.9 °F -0.9 °F 64% 30.30 in 10.0 mi SE 11.5 mph - N/A   Overcast
9:53 PM 10.9 °F -1.8 °F -0.9 °F 59% 30.27 in 10.0 mi SE 9.2 mph - N/A   Overcast
10:53 PM 12.9 °F -0.2 °F -0.0 °F 56% 30.27 in 10.0 mi South 10.4 mph - N/A   Overcast
11:53 PM 12.9 °F -0.2 °F 1.9 °F 62% 30.24 in 9.0 mi SSE 10.4 mph - 0.00 in Snow Light Snow